EW9427 Weather Reports


time (UTC)temp
F
wind
direction
speed
knots
gust
knots
rain 1hr
in
rain 24hr
in
rain mn
in
humidity
%
barometer
mb
20260906231608 64 350 3.5 7.0 0.00 0.05 0.02 76 1016.2
20260906230057 63 272 2.6 5.2 0.00 0.05 0.02 75 1016.4
20260906224555 63 298 1.7 7.0 0.00 0.05 0.02 77 1016.6
20260906223104 63 309 4.3 7.0 0.00 0.05 0.02 78 1016.7
20260906221555 63 19 2.6 7.0 0.00 0.05 0.02 76 1016.7
20260906220054 63 63 5.2 7.8 0.00 0.05 0.02 76 1016.6
20260906214554 63 36 4.3 8.7 0.00 0.05 0.02 76 1016.7
20260906213052 63 33 4.3 9.6 0.00 0.05 0.02 75 1016.6
20260906211551 63 5 5.2 10.4 0.00 0.05 0.02 74 1016.6
20260906204558 63 24 7.0 12.2 0.00 0.05 0.02 76 1016.6
20260906203048 63 19 7.8 12.2 0.00 0.05 0.02 76 1016.7
20260906201551 63 20 7.0 13.0 0.00 0.05 0.02 76 1016.8
20260906200047 63 14 8.7 13.9 0.00 0.05 0.02 75 1016.9
20260906194602 63 35 7.8 13.0 0.00 0.05 0.02 74 1016.9
20260906193045 63 360 7.8 13.0 0.00 0.05 0.02 74 1016.9
20260906191545 63 38 9.6 14.8 0.00 0.05 0.02 72 1016.9
20260906190043 63 9 10.4 15.6 0.00 0.05 0.02 71 1016.9
20260906184539 63 40 11.3 15.6 0.00 0.05 0.02 72 1016.8
20260906183050 61 10 10.4 16.5 0.00 0.05 0.02 76 1017.1
20260906181538 60 49 8.7 13.0 0.01 0.05 0.02 85 1016.9
20260906180030 59 326 2.6 8.7 0.01 0.05 0.02 89 1017.5
20260906174524 58 47 7.0 13.9 0.01 0.05 0.02 89 1017.6
20260906173021 58 255 0.9 3.5 0.01 0.05 0.02 88 1018.6
20260906171521 58 19 0.0 2.6 0.00 0.04 0.01 86 1018.9
20260906170020 58 20 1.7 5.2 0.00 0.04 0.01 86 1018.7
20260906164519 58 43 4.3 8.7 0.00 0.04 0.01 87 1018.7
20260906163019 58 69 1.7 5.2 0.01 0.04 0.01 90 1018.7
20260906161535 57 19 0.9 4.3 0.01 0.04 0.01 90 1018.6
20260906160017 56 344 1.7 3.5 0.01 0.04 0.01 91 1018.6
20260906154514 55 324 1.7 7.0 0.01 0.04 0.01 89 1019.0
20260906153015 55 314 3.5 10.4 0.00 0.03 0.00 87 1019.2
20260906151518 55 315 4.3 13.0 0.00 0.03 0.00 87 1019.3
20260906150013 55 296 7.0 13.0 0.00 0.03 0.00 87 1019.2
20260906144514 55 294 8.7 16.5 0.00 0.03 0.00 84 1019.6
20260906143008 59 290 2.6 7.8 0.00 0.03 0.00 85 1019.6
20260906141510 58 32 6.1 9.6 0.00 0.03 0.00 86 1019.0
20260906140010 58 15 6.1 8.7 0.00 0.03 0.00 85 1019.2
20260906134505 58 291 2.6 7.0 0.00 0.06 0.00 85 1019.1
20260906133007 58 20 3.5 9.6 0.00 0.06 0.00 86 1018.7
20260906131701 57 59 5.2 9.6 0.00 0.06 0.00 86 1018.7
20260906124555 57 11 7.8 11.3 0.00 0.06 0.00 87 1019.1
20260906123102 57 37 8.7 13.0 0.00 0.06 0.00 87 1018.8
20260906121552 56 5 7.8 13.0 0.00 0.06 0.00 87 1018.9
20260906120053 56 360 7.0 10.4 0.00 0.06 0.00 87 1019.1
20260906114552 56 10 7.8 12.2 0.00 0.06 0.00 87 1019.3
20260906113049 56 355 7.8 13.9 0.00 0.06 0.00 86 1019.1
20260906111549 56 360 8.7 13.0 0.00 0.06 0.00 85 1019.2
20260906110046 56 341 7.8 13.9 0.00 0.06 0.00 84 1019.1
20260906104546 57 10 10.4 13.9 0.00 0.06 0.00 84 1019.1
20260906103048 57 342 7.8 11.3 0.00 0.06 0.00 84 1019.3
20260906101546 57 360 7.0 12.2 0.00 0.06 0.00 84 1019.4
20260906100043 57 340 6.1 12.2 0.00 0.06 0.00 85 1019.4
20260906094550 57 355 10.4 16.5 0.00 0.06 0.00 85 1019.3
20260906093038 57 337 7.8 14.8 0.00 0.06 0.00 84 1019.5
20260906091538 57 315 4.3 10.4 0.00 0.06 0.00 83 1019.6
20260906090048 58 11 8.7 16.5 0.00 0.06 0.00 83 1019.8
20260906084536 56 276 10.4 14.8 0.00 0.06 0.00 86 1020.1
20260906083037 57 343 6.1 13.9 0.00 0.06 0.00 84 1020.1
20260906081532 57 5 6.1 12.2 0.00 0.06 0.00 84 1019.9
20260906080038 57 355 7.0 9.6 0.00 0.06 0.00 84 1019.8
20260906074532 57 5 7.8 12.2 0.00 0.06 0.00 84 1019.8
20260906073027 57 341 5.2 8.7 0.00 0.06 0.00 84 1019.9
20260906071528 58 360 9.6 15.6 0.00 0.06 0.00 83 1019.9
20260906070024 58 350 9.6 12.2 0.00 0.06 0.00 83 1020.2
20260906064522 58 331 7.0 11.3 0.00 0.06 0.00 84 1020.7
20260906063020 58 360 7.0 13.9 0.00 0.06 0.00 84 1020.6
20260906061517 57 348 9.6 14.8 0.00 0.06 0.00 84 1020.4
20260906060020 57 342 10.4 13.9 0.00 0.06 0.00 84 1020.5
20260906054513 56 355 7.0 13.0 0.01 0.06 0.06 84 1020.6
20260906053013 56 346 10.4 14.8 0.01 0.06 0.06 84 1020.4
20260906051515 56 360 9.6 14.8 0.01 0.06 0.06 82 1020.4
20260906050011 56 360 10.4 16.5 0.01 0.06 0.06 82 1020.2
20260906044513 57 360 8.7 14.8 0.00 0.05 0.05 82 1020.6
20260906043021 57 5 12.2 18.2 0.00 0.05 0.05 83 1020.0
20260906041508 57 355 10.4 18.2 0.02 0.05 0.05 83 1019.6
20260906040008 57 360 11.3 15.6 0.02 0.05 0.05 82 1019.8
20260906034507 58 360 12.2 16.5 0.02 0.05 0.05 81 1020.1
20260906033006 59 355 5.2 13.9 0.01 0.04 0.04 76 1020.7
20260906031505 60 309 3.5 14.8 0.00 0.03 0.03 68 1021.3
20260906030004 60 341 13.9 23.5 0.00 0.03 0.03 67 1019.3
20260906024502 60 10 14.8 19.1 0.00 0.03 0.03 67 1019.0
20260906023003 60 360 13.0 20.9 0.00 0.03 0.03 67 1018.7
20260906021603 61 10 13.0 20.0 0.00 0.03 0.03 66 1018.7
20260906020059 62 9 10.4 16.5 0.00 0.03 0.03 64 1018.8
20260906014559 63 15 11.3 15.6 0.00 0.03 0.03 62 1018.7
20260906013059 64 9 9.6 13.9 0.00 0.03 0.03 60 1018.6
20260906011559 65 5 9.6 13.9 0.00 0.03 0.03 58 1018.5
20260906010139 66 360 9.6 14.8 0.00 0.03 0.03 57 1018.6
20260906004614 66 19 11.3 16.5 0.00 0.03 0.03 56 1018.7
20260906003056 67 5 11.3 16.5 0.00 0.03 0.03 54 1018.8
20260906001603 69 20 11.3 18.2 0.00 0.03 0.03 53 1018.7
20260906000056 70 37 10.4 16.5 0.00 0.03 0.03 51 1018.7
20260905234555 70 26 9.6 13.9 0.00 0.03 0.03 50 1019.0
20260905233055 71 5 7.8 12.2 0.00 0.03 0.03 48 1018.9